GFSSW_700_temp_021.txt.gz
Temp
11 11 11 12 12 12 11 11 11 11 11 12 11 11 12 12 12 13 15 15 15 15 15 15 15 14 14 11 13 13 12 12 15 16 17 16 15 14 13 14 12 13 13 12 11
11 11 11 11 12 12 12 12 12 12 11 11 12 12 12 12 13 14 14 14 15 15 15 15 15 15 15 13 13 13 14 14 16 16 17 16 16 15 13 13 12 13 11 11 12
11 11 11 11 12 12 12 12 12 12 12 12 12 12 12 12 13 14 13 14 15 15 15 15 15 14 13 14 14 15 16 17 16 17 16 17 16 15 14 13 13 12 12 11 11
11 11 11 11 12 12 12 12 12 12 12 12 12 12 12 12 12 12 13 13 14 15 15 15 15 15 14 14 15 15 16 18 17 17 17 16 16 15 15 14 13 13 12 13 10
11 11 11 11 11 11 12 12 12 12 12 12 12 12 12 13 14 12 13 13 13 14 15 16 16 15 14 15 16 16 17 18 18 17 17 17 15 16 15 14 14 13 12 11 11
12 12 12 12 12 12 12 12 12 12 12 12 12 12 12 14 13 13 13 14 13 14 15 15 16 16 15 15 16 17 17 18 19 17 18 17 16 16 15 14 14 13 12 12 10
12 12 12 13 13 13 12 12 12 12 12 12 12 12 13 15 12 13 13 13 13 14 14 15 16 15 14 15 16 16 17 18 19 19 18 17 14 16 15 14 14 13 13 12 11
12 12 12 12 13 13 13 13 13 13 12 12 12 13 16 14 13 13 13 13 13 14 14 14 14 15 14 15 16 16 17 17 19 19 19 18 16 15 16 15 14 13 13 12 11
12 12 12 12 13 13 13 13 13 13 13 12 12 12 16 15 15 14 13 13 12 12 13 13 13 14 15 15 15 16 16 17 19 19 19 18 16 16 16 15 14 14 13 12 11
12 12 12 12 13 13 13 13 13 13 13 13 13 13 14 14 15 15 14 13 11 12 12 12 13 13 14 15 15 16 17 17 18 19 19 18 17 16 15 15 15 14 13 13 12
12 12 12 12 12 12 12 12 12 12 13 13 13 15 14 14 13 13 13 12 12 12 12 12 13 13 14 14 15 16 17 18 19 19 19 18 18 17 16 16 15 15 14 13 13
12 12 12 11 11 12 12 11 11 11 14 14 15 15 15 13 13 13 12 12 12 12 12 13 13 13 14 15 15 16 16 17 18 19 19 18 17 17 18 16 16 15 15 14 13
11 11 11 11 10 10 10 10 11 11 11 17 16 16 17 13 14 13 13 13 13 12 13 13 14 13 14 15 15 16 16 17 18 19 19 18 17 17 17 17 16 15 16 15 14
9 10 10 11 10 9 9 11 10 8 9 15 17 18 17 14 13 13 13 13 13 13 13 14 14 14 15 15 16 16 17 17 18 18 17 18 16 16 17 17 16 16 16 16 15
7 7 8 9 9 8 7 9 8 9 6 16 16 15 17 16 16 15 14 13 13 13 14 14 14 15 15 15 16 16 17 17 18 18 19 18 19 18 17 16 17 16 17 16 16
6 6 7 6 8 7 8 8 8 8 7 16 15 15 16 15 16 15 15 14 14 14 14 14 15 15 15 16 17 17 17 18 18 19 17 19 17 19 17 17 17 17 17 17 16
6 5 4 6 6 6 6 6 7 7 12 14 15 15 16 15 15 15 14 14 14 14 14 14 15 15 16 16 17 17 17 17 16 16 15 19 19 19 19 19 19 18 17 17 17
6 5 5 4 5 4 4 5 5 9 11 16 15 15 15 15 15 14 14 14 14 14 14 14 14 15 16 16 17 17 18 17 13 15 16 19 18 19 20 20 20 18 18 18 17
5 5 5 3 3 3 3 3 5 7 11 10 12 13 15 15 15 15 15 15 14 14 14 15 14 15 16 17 17 17 18 18 18 18 17 19 20 20 20 20 20 19 19 18 18
2 4 5 2 1 2 1 2 4 7 8 7 5 8 9 12 11 15 15 15 15 15 14 14 15 16 16 17 17 17 18 18 18 14 15 18 19 19 21 21 20 19 19 18 18
-1 -0 2 0 -0 -0 -1 -0 1 3 5 5 4 5 6 7 8 10 11 16 16 15 15 15 15 16 17 17 17 17 17 18 18 18 15 15 17 19 20 21 20 19 19 19 19
-3 -3 1 -1 -1 -1 -1 -1 0 1 2 4 4 4 4 5 6 8 9 12 16 16 16 16 16 15 16 17 18 18 17 18 16 17 18 17 17 19 20 20 21 21 20 20 19
-4 -3 -1 -1 -2 -1 -1 -0 1 1 2 3 3 4 4 5 5 7 8 12 12 12 16 16 15 15 16 16 16 18 18 18 17 17 17 15 17 19 20 19 19 18 19 19 20
-7 -6 -3 -3 -3 -2 -1 -1 -1 -0 1 1 1 2 3 4 5 6 6 9 10 12 14 14 16 16 15 16 16 17 18 18 17 17 16 17 17 18 19 19 20 18 19 19 19
-8 -7 -7 -6 -3 -4 -5 -5 -3 -2 -1 -1 -0 -2 -0 -1 0 4 5 7 10 11 11 12 14 16 16 16 17 17 17 18 17 17 17 17 17 18 18 19 20 20 19 19 19
-8 -8 -7 -7 -6 -6 -5 -4 -3 -3 -4 -3 -3 -2 -1 -2 -2 -1 -1 1 3 10 10 12 13 16 16 16 17 16 17 17 18 18 18 17 18 18 18 19 19 19 19 19 19
-7 -8 -8 -7 -6 -6 -6 -6 -5 -5 -4 -4 -4 -4 -2 -3 -3 -1 -0 1 1 4 7 8 10 14 15 16 16 16 17 17 18 18 18 18 18 18 18 18 19 19 19 19 18

GFSSW_700_temp_024.txt.gz
Temp
11 11 11 11 11 11 11 11 12 12 12 12 12 12 12 12 12 13 14 13 13 14 14 14 14 14 14 14 14 13 14 16 16 15 14 13 14 12 13 14 12 13 13 13 12
11 11 11 11 11 11 11 11 11 11 12 12 12 12 12 12 13 13 13 13 14 14 15 15 14 14 14 14 14 13 14 15 16 15 14 14 13 15 13 13 12 13 12 12 12
11 11 11 11 11 12 12 11 12 12 12 12 12 12 12 12 13 13 14 14 14 15 15 15 13 14 13 14 13 14 14 14 15 15 15 14 14 14 14 14 14 14 13 13 12
12 12 12 12 12 12 12 12 12 12 12 12 12 12 12 12 13 13 13 14 14 14 14 14 14 14 15 14 14 13 14 14 16 16 15 15 15 15 15 15 14 14 14 13 12
12 12 12 13 13 13 13 12 12 12 12 12 12 12 12 13 13 12 12 12 13 13 13 14 15 15 15 15 15 14 14 14 15 16 16 15 15 15 14 14 13 13 13 13 13
12 12 12 12 13 13 13 13 13 12 12 12 12 12 12 14 13 13 13 13 12 13 13 14 15 15 15 15 15 15 15 15 15 16 16 16 15 15 14 15 14 14 14 13 13
12 12 12 13 13 13 12 13 13 13 13 13 12 12 13 15 12 12 13 13 12 13 13 14 15 14 15 15 15 15 15 16 17 17 16 16 16 15 15 14 14 14 13 14 13
12 12 13 13 13 13 13 13 13 13 13 13 13 14 17 15 13 15 13 13 13 14 13 14 14 14 15 15 16 15 15 16 18 17 17 16 15 15 15 14 14 13 13 13 13
13 12 12 12 13 13 13 13 13 13 13 13 14 14 16 16 15 14 14 14 14 13 13 13 13 13 14 14 15 15 15 16 18 16 17 16 16 14 15 14 14 13 13 13 13
13 13 13 12 12 13 12 12 13 13 13 14 14 14 15 15 14 14 14 13 14 13 11 12 12 13 13 13 14 15 15 16 17 18 17 16 17 14 15 14 14 15 14 14 14
13 13 13 12 12 12 12 12 12 12 14 14 14 15 15 14 14 14 13 13 12 12 12 11 12 12 13 14 14 15 16 16 18 17 17 17 17 16 15 14 15 15 14 14 14
12 13 13 13 12 12 11 12 11 12 15 14 15 16 16 13 14 14 12 12 12 12 12 12 11 12 12 13 14 15 16 17 17 17 16 18 18 17 16 16 16 16 15 14 14
10 11 12 11 12 11 10 10 10 10 10 17 16 17 17 14 15 15 13 12 12 11 12 12 12 12 12 13 13 14 15 17 16 17 17 17 16 16 15 15 15 15 16 15 15
9 10 10 10 10 10 9 10 9 9 9 14 16 17 18 16 15 15 13 13 12 12 12 12 12 13 13 13 13 14 15 16 16 16 16 16 16 17 16 15 15 15 16 16 15
8 8 9 9 9 8 8 8 8 8 6 15 15 15 16 16 16 15 14 12 12 12 12 12 13 13 13 13 14 14 15 15 15 16 16 17 16 18 17 16 16 16 16 16 16
7 7 7 6 7 8 7 7 6 7 5 14 14 16 16 16 15 16 14 13 13 13 12 13 13 13 14 13 14 15 15 15 16 16 14 16 17 17 17 18 17 17 16 16 16
6 6 5 6 5 6 6 5 5 6 10 13 13 13 15 16 14 15 13 13 12 13 12 13 13 13 14 14 14 15 15 14 13 14 13 17 17 17 18 18 18 18 17 17 17
3 4 5 3 4 4 5 4 4 7 10 12 12 12 12 13 15 15 14 13 13 13 13 12 13 13 14 14 15 15 15 14 11 11 12 17 15 17 18 19 19 18 18 17 17
1 2 3 3 3 3 3 2 5 6 7 8 10 10 12 13 13 12 14 14 13 13 13 13 13 14 14 14 15 15 15 16 16 16 14 16 18 18 18 19 19 19 18 17 17
-2 -1 1 0 1 1 0 2 3 6 5 5 4 6 7 9 8 9 12 14 14 14 14 13 14 14 15 15 15 15 16 16 15 13 13 15 17 18 19 19 19 19 19 18 18
-4 -4 -0 -1 -1 -1 -1 -0 1 4 3 2 3 2 4 3 4 4 6 12 12 14 15 14 14 14 15 15 15 15 15 16 17 16 14 10 16 17 18 19 19 19 20 19 18
-6 -5 -2 -2 -1 -2 -2 -1 -0 -0 2 1 1 2 2 2 3 3 4 5 10 10 10 12 14 13 14 15 15 16 16 16 16 16 16 16 16 17 18 18 19 19 19 19 19
-6 -5 -4 -5 -3 -2 -2 -2 -2 -1 -1 -0 -0 0 1 1 2 4 5 6 6 7 8 11 12 13 13 15 15 15 16 16 16 17 16 14 16 17 18 18 19 18 19 18 18
-7 -7 -4 -5 -6 -6 -5 -4 -3 -3 -2 -2 -1 -1 -1 0 1 1 3 4 5 5 6 8 9 11 13 14 15 15 16 15 16 16 16 17 16 17 18 18 18 18 19 19 19
-7 -7 -7 -6 -4 -7 -7 -6 -5 -4 -4 -4 -3 -2 -2 -1 -0 1 1 1 3 4 5 6 8 10 11 13 15 16 16 16 16 16 16 17 16 17 17 18 18 19 18 19 19
-8 -7 -7 -6 -6 -6 -6 -7 -6 -5 -5 -4 -4 -3 -3 -2 -2 -2 -1 1 0 3 4 6 6 9 10 13 14 16 16 16 16 17 17 17 17 17 17 17 18 18 18 18 19
-7 -8 -8 -7 -6 -6 -6 -6 -6 -7 -5 -5 -5 -5 -4 -3 -3 -2 -2 -1 0 0 3 3 3 5 9 14 14 15 16 16 17 16 17 17 17 18 17 17 18 18 18 18 18

GFSSW_700_temp_027.txt.gz
Temp
11 11 11 11 11 11 11 11 11 11 11 11 11 11 12 12 12 12 14 12 13 13 14 14 14 14 14 14 12 13 12 14 14 14 14 13 13 12 13 14 12 12 13 13 12
11 11 11 11 11 11 11 11 11 11 11 11 11 11 12 12 12 12 13 13 13 13 14 14 14 14 14 14 13 13 13 14 14 14 15 14 14 15 13 13 13 13 13 12 13
11 12 12 12 12 12 12 11 11 11 11 11 11 11 12 12 12 13 13 13 14 14 14 14 13 14 14 14 14 14 15 15 14 14 14 15 14 14 14 14 14 14 14 13 13
12 12 12 12 12 12 12 12 12 12 12 12 12 11 12 12 12 12 12 13 13 13 13 13 13 14 15 15 15 14 15 14 15 13 12 13 14 14 14 14 14 13 13 13 13
12 12 12 12 13 12 13 13 12 12 12 12 12 12 12 13 13 11 12 12 13 13 13 13 14 14 15 15 15 15 15 15 15 14 13 13 13 15 15 14 14 14 13 13 13
12 12 12 12 12 12 12 13 13 13 13 13 12 12 12 14 12 12 12 12 12 12 12 12 13 14 15 15 15 15 14 14 15 15 14 13 13 14 14 14 14 14 14 13 13
13 13 13 13 13 13 12 12 13 13 13 13 13 13 14 15 12 12 12 12 11 12 12 12 12 12 14 15 14 14 14 14 15 15 15 14 13 14 15 15 14 14 14 13 13
13 13 13 13 13 13 13 12 13 13 13 13 14 14 16 14 13 13 13 13 12 12 11 12 12 13 13 14 14 14 14 15 15 16 17 15 13 15 15 15 14 14 14 14 13
13 13 13 13 13 14 12 13 13 13 13 14 14 14 16 15 15 13 13 12 12 12 12 12 12 13 13 13 13 14 15 15 15 16 16 15 15 14 15 15 15 14 14 14 13
13 13 13 13 13 14 12 13 13 13 14 14 14 14 15 14 14 14 14 12 12 11 12 11 11 12 13 12 12 14 15 15 15 16 15 16 16 16 16 15 15 15 14 14 14
12 12 12 12 13 13 12 13 12 13 14 14 14 14 14 14 14 13 14 12 11 12 11 11 11 12 13 13 14 14 14 15 15 16 15 16 16 16 16 15 15 15 14 14 14
10 11 11 11 12 12 12 12 12 12 14 14 14 15 15 12 14 13 13 12 12 12 11 11 11 12 13 13 13 13 14 16 16 15 15 15 16 16 16 17 18 17 15 15 14
9 10 10 10 10 10 10 10 9 9 11 17 16 16 16 14 14 13 13 13 12 12 12 11 12 12 12 12 12 13 14 16 16 15 15 16 15 14 15 15 15 15 15 15 15
7 8 9 9 9 8 8 8 8 7 9 14 15 15 16 16 15 15 13 13 11 12 12 11 12 12 12 12 12 13 15 15 15 14 15 16 14 14 15 15 15 16 15 15 14
6 6 7 7 7 7 7 7 6 6 5 14 14 14 15 15 15 16 13 12 12 12 11 12 12 12 12 13 13 13 14 15 14 14 14 15 15 15 15 15 15 16 16 16 16
4 4 5 6 6 6 6 6 5 5 4 12 12 13 13 14 14 15 13 12 12 11 11 13 13 13 13 12 13 13 13 14 14 14 12 15 14 15 15 15 16 16 16 17 17
3 3 3 3 5 5 5 5 4 4 10 10 10 12 12 13 13 13 13 11 11 11 11 12 12 13 12 12 12 13 13 12 11 11 12 15 14 15 17 17 16 17 18 18 18
2 2 2 2 3 3 4 3 3 6 8 8 9 10 11 12 12 12 12 12 11 12 12 11 11 12 13 12 13 13 13 12 8 8 12 15 15 16 17 17 18 18 18 18 18
0 0 0 0 0 2 3 2 4 5 5 6 8 9 10 10 11 11 11 11 12 12 12 12 12 13 13 13 13 13 13 13 14 13 12 15 16 16 17 17 18 18 18 18 18
-2 -2 -1 -2 -3 -1 -0 1 2 3 3 4 5 6 7 8 8 9 11 10 11 11 12 12 12 13 14 13 13 13 14 13 13 10 10 13 15 17 17 18 18 18 18 18 18
-4 -4 -4 -5 -3 -3 -2 -1 0 2 2 2 3 2 3 3 3 4 7 8 9 11 11 11 12 13 14 13 14 13 14 14 14 14 11 10 14 16 16 17 18 19 18 19 18
-4 -4 -6 -5 -4 -5 -4 -4 -3 -1 0 -0 -0 0 1 1 1 2 4 4 6 7 9 9 10 11 12 13 14 14 14 13 14 14 14 15 15 17 17 18 18 19 18 18 19
-5 -4 -5 -5 -5 -6 -5 -5 -4 -3 -3 -2 -2 -1 -1 -1 0 1 2 4 4 4 6 7 8 10 11 12 13 13 14 14 14 14 14 13 14 16 16 17 17 18 18 19 19
-6 -6 -5 -7 -7 -7 -6 -6 -5 -4 -4 -4 -3 -3 -2 -2 -1 -0 1 2 3 3 4 4 5 6 8 11 12 13 14 14 14 14 14 14 15 16 17 17 17 18 18 18 18
-7 -7 -7 -7 -6 -7 -7 -6 -6 -6 -5 -5 -4 -4 -3 -3 -2 -1 -1 1 2 2 2 3 3 5 6 7 10 10 11 14 13 14 14 15 15 16 16 17 17 17 18 18 18
-7 -8 -8 -7 -7 -7 -8 -7 -7 -6 -6 -5 -5 -5 -5 -4 -5 -3 -2 -1 0 1 2 2 3 4 5 7 9 10 11 12 15 15 14 15 15 16 17 17 17 17 18 18 18
-7 -8 -8 -8 -7 -8 -7 -8 -7 -7 -6 -6 -5 -5 -5 -5 -4 -3 -3 -2 -1 -0 1 2 2 3 3 6 9 10 12 13 13 14 16 15 16 16 17 17 17 17 17 18 18

GFSSW_700_temp_030.txt.gz
Temp
11 11 11 11 11 11 11 11 11 11 11 11 11 11 11 11 11 12 13 12 12 13 13 13 14 14 14 14 13 13 12 13 13 13 14 13 13 13 12 13 12 12 12 12 12
11 11 11 11 11 11 11 11 11 12 12 11 11 12 12 12 12 12 12 12 12 13 14 14 14 14 14 14 14 13 13 13 13 13 13 13 14 14 13 13 13 13 13 12 13
11 11 11 12 12 11 11 11 12 12 12 12 12 12 12 12 12 12 13 13 13 14 14 13 13 14 14 14 14 13 14 13 13 14 13 13 13 13 13 13 13 13 13 13 12
12 12 12 12 12 12 12 12 12 12 12 12 12 12 12 12 12 12 12 12 13 13 13 13 13 14 14 14 14 14 14 14 14 13 14 13 13 14 13 13 13 13 13 13 13
12 12 12 12 12 12 12 12 12 12 13 12 12 12 12 13 12 11 11 12 12 13 13 13 14 14 14 14 14 14 15 14 14 14 13 13 13 13 14 13 13 14 12 13 12
12 12 13 13 13 13 13 12 13 13 13 13 13 13 13 14 12 12 12 12 12 13 13 12 14 14 14 14 14 15 14 15 14 15 14 14 14 13 13 13 13 14 13 13 12
12 12 12 13 13 13 13 13 13 13 13 13 13 13 14 13 12 12 12 12 12 12 12 12 13 13 14 13 13 14 14 14 15 15 15 15 14 15 14 13 13 13 13 13 12
12 12 13 13 13 13 13 13 13 13 13 13 13 13 15 13 13 13 12 11 11 11 11 11 11 12 12 12 12 13 13 14 16 15 15 15 16 16 14 13 13 13 13 13 13
11 11 12 12 13 13 13 13 13 13 13 13 13 13 14 14 14 13 12 12 11 11 11 10 10 10 11 11 11 12 13 14 15 15 15 15 16 16 15 14 13 13 13 13 14
10 10 11 11 12 12 13 12 13 13 13 13 14 13 14 14 14 14 13 12 11 11 10 10 9 11 11 11 10 12 13 14 14 15 15 15 16 16 16 15 15 14 14 13 14
10 10 10 9 10 11 11 12 12 12 13 13 14 14 14 14 13 14 13 12 11 10 10 10 9 11 13 12 13 13 13 14 14 15 15 15 15 15 15 15 15 15 14 14 14
9 10 10 9 9 9 10 11 11 11 14 13 14 15 13 13 13 13 14 12 11 11 10 10 10 12 12 12 12 13 12 14 14 14 15 15 15 14 15 15 16 16 15 14 14
8 9 10 9 8 8 8 8 9 9 10 16 15 15 15 13 14 13 13 13 12 11 11 11 11 11 11 12 12 12 13 14 14 14 14 15 15 16 16 15 15 16 15 14 14
6 6 7 9 8 7 7 7 7 6 8 13 14 14 15 14 13 13 13 13 12 12 11 10 11 11 11 11 12 12 14 13 13 13 13 14 14 15 16 16 16 15 16 15 14
4 4 5 6 8 6 6 6 6 4 4 12 11 12 12 13 13 14 12 11 12 13 11 11 11 10 10 12 11 12 13 13 13 13 13 13 13 14 16 16 16 17 16 16 16
2 2 3 4 5 5 5 5 4 4 3 10 10 10 12 12 12 12 11 11 11 11 12 12 11 11 12 12 12 12 12 13 13 12 11 13 13 14 16 16 17 17 16 17 16
1 1 2 2 4 4 4 3 3 3 8 8 8 9 10 11 11 12 12 10 11 10 10 11 11 12 12 11 11 11 11 11 10 9 10 14 13 14 16 17 17 17 17 17 17
-0 -0 0 1 1 2 2 2 2 4 6 6 7 8 8 10 10 10 11 10 10 11 11 10 10 11 12 12 12 11 11 11 7 7 10 14 14 15 16 17 17 17 17 17 17
-1 -1 -1 -1 -1 -1 1 1 3 3 2 4 6 7 7 8 9 10 10 9 9 10 11 10 11 12 12 12 12 11 11 12 12 10 10 14 15 15 15 16 17 17 18 17 18
-2 -2 -2 -2 -3 -4 -2 -1 0 -0 0 2 4 4 5 6 8 9 9 8 9 10 10 11 11 12 13 12 12 12 12 11 11 9 8 10 13 16 16 17 17 17 18 18 18
-3 -3 -4 -4 -4 -4 -4 -4 -2 -2 -2 -1 -0 1 1 3 4 5 5 6 8 9 9 10 10 12 12 11 12 12 12 12 12 12 8 7 13 15 16 17 18 18 18 18 18
-4 -5 -5 -5 -5 -6 -6 -6 -5 -3 -3 -3 -2 -1 -1 0 1 2 3 3 4 6 7 8 9 10 11 12 12 13 12 12 13 11 12 12 13 16 17 17 17 18 18 18 18
-5 -5 -5 -5 -6 -6 -6 -6 -6 -5 -3 -3 -2 -2 -2 -1 0 1 2 2 2 4 4 5 6 8 10 12 12 12 12 13 13 13 12 11 13 16 16 15 16 16 18 18 18
-6 -6 -6 -6 -7 -7 -6 -6 -5 -6 -5 -5 -4 -4 -3 -2 -2 -1 1 0 1 2 3 3 4 5 6 9 8 11 12 13 13 12 12 12 13 14 15 16 16 17 17 17 18
-7 -7 -7 -7 -7 -7 -7 -7 -7 -6 -6 -5 -5 -5 -4 -3 -3 -2 -1 -0 0 0 1 2 2 3 4 6 6 7 9 11 11 12 12 12 13 13 14 15 15 16 17 17 18
-8 -8 -9 -8 -8 -8 -7 -7 -7 -7 -7 -6 -5 -5 -5 -4 -5 -3 -3 -2 -0 0 0 1 1 2 3 4 6 7 8 9 10 11 10 11 13 14 14 15 15 16 16 17 17
-8 -8 -9 -8 -8 -9 -8 -8 -7 -8 -6 -7 -6 -6 -6 -6 -5 -4 -5 -3 -2 -1 0 0 1 1 2 3 5 6 9 9 10 10 11 12 12 13 14 15 15 16 16 17 17

GFSSW_700_temp_033.txt.gz
Temp
11 11 11 11 11 12 12 12 11 11 11 11 11 12 11 11 12 12 12 11 11 12 13 13 13 13 13 14 13 13 13 13 13 13 13 13 12 13 13 12 12 11 11 12 12
11 11 11 11 11 12 12 12 12 12 12 11 12 12 12 12 12 12 11 12 13 13 14 14 14 14 14 14 13 13 13 13 13 13 13 13 13 13 13 12 12 12 12 11 12
11 12 12 12 12 12 12 12 12 12 12 12 12 12 12 12 12 12 12 12 13 13 13 13 13 14 14 14 14 14 13 13 13 13 13 14 13 13 13 13 12 12 13 12 12
12 12 12 12 12 12 12 12 12 13 12 12 12 12 12 12 12 12 12 12 12 12 13 13 13 13 13 14 14 14 13 13 13 13 13 13 13 13 13 13 12 12 12 12 12
12 12 12 12 12 12 12 12 12 13 13 12 12 13 13 13 13 11 12 12 12 12 12 13 14 14 14 14 14 14 14 14 13 13 13 14 14 14 13 13 13 12 12 12 12
11 11 12 12 13 13 13 13 13 13 12 13 13 13 13 14 12 11 12 12 12 12 12 12 13 14 13 14 14 14 14 14 14 14 14 14 14 14 14 13 13 13 12 12 12
11 11 11 12 12 12 13 13 13 13 13 13 13 13 14 12 12 12 12 12 11 12 12 12 12 12 13 14 13 13 14 14 15 15 14 14 15 16 14 14 13 13 12 12 12
10 10 10 11 12 12 13 13 13 13 13 13 13 13 14 13 14 13 12 12 12 11 11 11 11 11 11 12 12 12 13 14 15 15 15 15 15 16 15 14 14 13 13 12 13
10 10 10 10 10 11 12 13 13 13 13 13 13 13 14 14 14 13 12 12 11 11 10 10 10 10 11 11 11 11 13 14 15 15 15 15 15 16 16 15 14 14 13 13 13
10 10 10 10 10 11 11 12 12 13 13 13 13 12 14 13 14 14 12 12 11 11 10 9 9 10 10 9 11 11 11 13 14 15 15 15 15 15 15 15 15 14 13 13 13
9 10 10 10 10 10 10 11 11 11 13 13 13 14 13 14 13 13 12 11 10 10 11 10 9 11 9 10 10 12 12 13 14 14 14 15 15 15 15 15 15 14 14 13 13
8 9 10 9 9 9 10 10 10 10 12 12 12 13 12 13 13 13 12 11 11 10 10 10 10 12 11 11 11 12 11 12 13 14 14 15 15 15 15 15 15 15 15 15 13
6 6 7 8 8 7 8 8 8 8 9 14 13 13 12 11 12 13 13 12 12 11 11 11 11 11 11 11 11 11 11 12 12 13 14 14 14 15 16 16 16 16 15 14 14
3 3 4 6 6 5 5 6 6 6 8 12 13 13 13 11 11 12 12 12 10 11 11 10 9 11 11 11 11 10 12 11 11 12 13 13 16 15 15 16 16 16 17 15 14
2 2 2 2 4 4 4 4 4 4 8 10 9 10 11 11 11 12 11 10 11 11 10 10 10 9 11 12 10 10 10 12 11 12 12 13 14 15 15 15 16 17 17 17 15
1 1 1 2 2 3 3 3 2 3 6 8 8 9 9 9 9 10 11 10 10 10 11 11 11 10 12 12 11 10 11 11 11 12 12 13 13 15 14 16 17 17 17 17 16
-0 -0 0 0 1 1 2 2 1 3 7 6 6 7 8 8 8 9 10 9 9 9 9 9 10 11 10 10 10 10 11 12 12 13 14 14 13 14 15 15 17 17 18 18 17
-1 -1 -1 -1 -0 1 1 0 1 2 2 4 5 6 7 8 8 9 9 8 9 10 11 10 9 10 11 10 10 10 11 13 13 15 16 13 14 15 15 16 17 17 17 17 17
-1 -2 -2 -2 -2 -1 -1 -1 -0 -2 -1 0 3 4 6 7 7 8 8 8 8 9 11 11 11 11 11 11 10 10 10 12 13 12 13 15 14 14 15 16 16 17 17 17 17
-2 -2 -3 -3 -3 -3 -3 -3 -2 -3 -3 -1 -1 1 2 4 6 7 7 7 8 8 10 10 11 11 11 11 11 11 11 10 11 13 13 15 13 15 16 16 16 17 18 18 17
-3 -3 -4 -4 -4 -4 -5 -5 -4 -4 -4 -3 -2 -2 -1 1 3 4 4 4 6 7 9 9 10 11 10 10 11 10 10 11 12 12 15 15 16 15 15 16 17 18 18 18 18
-4 -4 -5 -5 -5 -6 -6 -6 -5 -5 -4 -4 -3 -3 -2 -1 1 2 3 3 4 5 6 8 9 11 10 11 11 11 11 11 12 12 12 14 15 16 16 16 16 17 18 18 18
-4 -5 -6 -5 -5 -6 -6 -6 -6 -6 -5 -4 -3 -3 -3 -2 -0 0 1 1 2 3 5 6 7 9 10 10 10 11 11 11 12 13 12 13 15 15 16 16 15 16 17 18 18
-6 -6 -6 -6 -7 -7 -7 -6 -6 -7 -6 -5 -5 -4 -3 -2 -1 -1 -1 -0 1 2 3 3 5 8 11 11 10 10 10 11 12 12 12 12 14 14 15 16 16 16 16 17 17
-6 -7 -7 -7 -7 -7 -8 -7 -7 -8 -7 -6 -5 -5 -4 -4 -3 -2 -1 -0 -0 1 2 2 2 4 5 6 5 7 9 9 9 11 12 13 13 12 13 15 16 15 16 17 17
-7 -8 -8 -8 -8 -8 -8 -8 -8 -8 -7 -7 -7 -6 -6 -5 -5 -4 -3 -2 -1 -0 0 1 1 2 3 5 4 6 8 9 9 9 9 10 11 12 12 12 14 14 15 16 17
-7 -8 -8 -8 -8 -8 -8 -8 -8 -9 -8 -8 -7 -7 -6 -6 -5 -5 -5 -3 -2 -1 -0 -0 0 1 3 3 4 6 8 7 8 8 9 10 11 12 13 13 13 14 15 16 16

GFSSW_700_temp_036.txt.gz
Temp
11 11 12 12 12 12 12 12 12 12 12 11 12 12 12 12 12 12 12 11 12 12 13 14 14 13 13 13 13 12 12 15 15 15 14 12 12 12 13 12 11 11 12 12 12
11 11 11 12 12 12 12 12 12 12 12 12 12 12 12 12 12 12 11 11 12 13 13 14 14 14 13 13 13 12 13 15 14 14 14 13 13 13 11 12 12 12 12 11 12
11 11 11 11 12 12 12 12 12 12 13 13 12 12 12 12 12 13 12 12 12 13 12 13 13 14 12 12 13 11 14 13 14 13 13 13 13 12 12 11 11 12 12 12 12
11 11 12 12 12 12 12 12 13 12 13 13 13 12 12 12 11 12 12 12 12 12 12 12 13 13 10 12 13 13 13 13 13 13 13 13 13 13 13 12 12 12 12 12 12
11 11 11 12 12 12 12 12 12 12 13 13 13 13 13 12 13 12 12 12 12 12 12 12 13 12 11 12 12 14 12 12 13 13 13 13 13 13 13 13 13 13 12 11 11
10 10 11 11 12 12 13 13 12 12 13 13 13 12 13 13 13 11 12 12 12 12 12 12 13 11 11 11 12 13 12 13 13 13 14 14 13 13 13 13 13 13 12 12 11
10 10 11 11 11 12 12 13 13 13 12 13 13 13 13 12 12 12 13 11 11 11 12 12 11 10 11 11 12 12 13 13 15 14 14 14 14 14 14 13 14 13 13 13 12
10 10 10 11 11 11 12 12 12 13 13 13 13 13 14 13 13 13 13 12 11 11 10 9 10 9 10 11 12 12 13 15 15 15 15 14 16 15 14 14 14 14 13 12 13
10 10 10 10 11 11 11 12 12 12 13 12 12 12 13 14 13 12 12 12 12 11 10 8 8 9 10 10 12 13 15 16 16 15 15 15 16 15 14 13 14 14 14 13 13
9 10 10 10 10 11 11 11 12 12 12 12 12 11 13 13 13 12 12 12 11 11 10 10 9 9 10 11 14 15 15 16 16 16 15 16 16 16 14 13 13 14 14 13 13
7 8 8 8 9 10 10 11 11 11 12 12 12 12 13 14 12 13 12 11 10 10 10 9 9 10 11 12 13 15 15 15 16 16 15 16 16 16 14 13 13 13 14 14 13
5 6 6 7 7 8 8 9 9 9 12 12 12 12 12 12 13 12 11 11 11 10 9 9 10 11 11 12 12 13 13 15 16 15 15 16 16 16 15 14 13 14 15 15 13
3 3 4 4 5 5 6 6 7 7 8 13 12 13 12 11 12 13 12 11 11 9 10 11 12 11 11 11 11 12 13 15 15 15 15 15 16 16 15 15 14 13 13 14 14
3 2 2 3 4 3 4 5 5 5 7 9 12 12 12 11 11 12 13 11 9 10 10 11 12 11 11 11 11 13 13 13 14 15 15 16 18 18 17 16 15 14 14 13 15
2 2 1 1 1 2 2 2 3 3 9 9 8 9 11 10 10 11 12 9 10 11 11 11 11 11 11 12 12 13 14 13 13 14 15 16 16 17 17 16 16 15 15 15 15
2 2 1 1 0 1 2 1 1 3 8 8 7 7 8 9 8 8 9 9 9 10 11 12 12 12 12 12 12 12 12 13 13 14 16 16 17 17 18 17 17 16 15 16 16
1 1 1 0 -0 -0 1 0 1 5 7 6 5 6 7 8 7 7 8 8 9 10 11 11 12 11 12 12 11 11 12 14 15 16 17 17 16 17 18 17 17 17 16 16 17
-0 -0 -1 -1 -1 -1 -0 -1 2 5 2 1 2 3 5 7 7 8 8 8 9 10 13 11 12 12 12 12 12 12 13 16 16 18 18 16 17 17 17 16 16 16 17 16 15
-1 -1 -2 -2 -2 -2 -1 -0 2 -1 -3 -2 2 5 7 6 7 7 8 9 9 11 13 13 13 13 12 12 12 12 12 14 17 17 18 19 17 17 16 17 16 16 17 17 17
-1 -2 -2 -3 -2 -2 -2 -1 -2 -4 -4 -2 1 2 4 5 5 7 9 8 9 10 11 12 14 13 12 12 12 13 13 13 15 16 17 18 18 18 17 16 16 17 17 17 17
-2 -3 -3 -3 -3 -4 -3 -4 -4 -5 -4 -3 -1 -0 1 2 3 6 6 4 7 9 8 10 12 14 13 12 13 12 13 14 15 16 19 19 19 18 17 16 16 17 17 17 17
-2 -4 -4 -4 -4 -5 -5 -6 -5 -5 -5 -4 -3 -2 -0 0 2 4 4 3 2 3 6 8 11 13 13 13 13 13 13 13 15 15 15 17 20 17 17 16 16 17 17 17 17
-3 -4 -4 -5 -5 -6 -7 -6 -6 -5 -6 -6 -5 -3 -3 -1 1 1 1 -0 2 3 5 7 9 12 13 13 12 13 13 14 14 15 15 16 18 16 16 16 15 15 16 16 16
-5 -6 -6 -7 -7 -7 -7 -6 -6 -6 -6 -6 -6 -5 -4 -1 -1 0 1 0 1 1 3 5 8 11 14 14 13 13 13 13 14 14 16 16 17 16 15 15 15 15 15 15 16
-7 -7 -7 -7 -7 -8 -7 -6 -6 -6 -7 -6 -6 -6 -6 -4 -1 -1 -1 -0 0 1 2 3 7 7 9 8 9 12 13 13 14 14 15 16 16 16 15 15 15 14 14 15 16
-6 -7 -7 -7 -7 -9 -8 -7 -6 -7 -7 -6 -7 -7 -7 -6 -5 -5 -4 -2 -0 -1 0 2 5 5 6 7 7 9 10 11 13 14 14 14 15 15 14 14 14 14 14 16 16
-6 -7 -7 -7 -8 -8 -7 -8 -8 -8 -7 -7 -7 -7 -6 -7 -6 -6 -5 -4 -3 -2 -1 0 3 4 8 8 7 8 9 9 10 11 12 13 13 13 13 13 13 14 15 16 16